Time,TemperatureF,DewpointF,PressureIn,WindDirection,WindDirectionDegrees,WindSpeedMPH,WindSpeedGustMPH,Humidity,HourlyPrecipIn,Conditions,Clouds,dailyrainin,SoftwareType,DateUTC
2013-09-02 00:00:00,61.2,48.9,29.79,WSW,251,0.0,4.0,64,0.00,,,0.00,Wunderground v.1.15,2013-09-02 06:00:00,
2013-09-02 00:10:00,61.9,49.2,29.80,WSW,251,0.0,4.0,63,0.00,,,0.00,Wunderground v.1.15,2013-09-02 06:10:00,
2013-09-02 00:15:00,62.0,48.8,29.80,WSW,251,0.0,4.0,62,0.00,,,0.00,Wunderground v.1.15,2013-09-02 06:15:00,
2013-09-02 00:20:00,61.8,49.1,29.80,WSW,251,0.0,4.0,63,0.00,,,0.00,Wunderground v.1.15,2013-09-02 06:20:00,
2013-09-02 00:25:00,61.6,48.9,29.80,WSW,251,0.0,4.0,63,0.00,,,0.00,Wunderground v.1.15,2013-09-02 06:25:00,
2013-09-02 00:30:00,62.1,49.4,29.79,WSW,251,0.0,4.0,63,0.00,,,0.00,Wunderground v.1.15,2013-09-02 06:30:00,
2013-09-02 00:35:00,62.2,49.4,29.80,WSW,251,0.0,4.0,63,0.00,,,0.00,Wunderground v.1.15,2013-09-02 06:35:00,
2013-09-02 00:40:00,62.6,48.1,29.80,WSW,251,0.0,4.0,59,0.00,,,0.00,Wunderground v.1.15,2013-09-02 06:40:00,
2013-09-02 00:45:00,62.9,47.9,29.80,WSW,251,0.0,4.0,58,0.00,,,0.00,Wunderground v.1.15,2013-09-02 06:45:00,
2013-09-02 00:50:00,63.0,48.0,29.80,WSW,251,0.0,4.0,58,0.00,,,0.00,Wunderground v.1.15,2013-09-02 06:50:00,
2013-09-02 00:55:00,62.4,47.9,29.80,WSW,251,1.0,4.0,59,0.00,,,0.00,Wunderground v.1.15,2013-09-02 06:55:00,
2013-09-02 01:05:00,63.5,47.5,29.80,WSW,251,0.0,4.0,56,0.00,,,0.00,Wunderground v.1.15,2013-09-02 07:05:00,
2013-09-02 01:10:00,64.1,47.6,29.80,WSW,251,0.0,4.0,55,0.00,,,0.00,Wunderground v.1.15,2013-09-02 07:10:00,
2013-09-02 01:15:00,63.4,48.4,29.78,NNW,336,1.0,4.0,58,0.00,,,0.00,Wunderground v.1.15,2013-09-02 07:15:00,
2013-09-02 01:20:00,62.5,47.1,29.79,NNW,336,1.0,1.0,57,0.00,,,0.00,Wunderground v.1.15,2013-09-02 07:20:00,
2013-09-02 01:30:00,62.8,47.8,29.80,West,275,0.0,4.0,58,0.00,,,0.00,Wunderground v.1.15,2013-09-02 07:30:00,
2013-09-02 01:35:00,62.9,47.9,29.80,West,275,0.0,4.0,58,0.00,,,0.00,Wunderground v.1.15,2013-09-02 07:35:00,
2013-09-02 01:40:00,63.2,47.2,29.79,West,275,0.0,4.0,56,0.00,,,0.00,Wunderground v.1.15,2013-09-02 07:40:00,
2013-09-02 01:45:00,62.5,48.0,29.79,West,275,0.0,4.0,59,0.00,,,0.00,Wunderground v.1.15,2013-09-02 07:45:00,
2013-09-02 01:50:00,62.3,48.2,29.79,West,275,0.0,4.0,60,0.00,,,0.00,Wunderground v.1.15,2013-09-02 07:50:00,
2013-09-02 02:00:00,61.7,48.5,29.79,West,275,0.0,4.0,62,0.00,,,0.00,Wunderground v.1.15,2013-09-02 08:00:00,
2013-09-02 02:05:00,61.6,49.3,29.79,West,275,0.0,4.0,64,0.00,,,0.00,Wunderground v.1.15,2013-09-02 08:05:00,
2013-09-02 02:10:00,61.8,48.6,29.79,West,275,0.0,4.0,62,0.00,,,0.00,Wunderground v.1.15,2013-09-02 08:10:00,
2013-09-02 02:15:00,61.7,49.0,29.79,West,275,0.0,4.0,63,0.00,,,0.00,Wunderground v.1.15,2013-09-02 08:15:00,
2013-09-02 02:20:00,61.8,49.1,29.80,West,275,0.0,4.0,63,0.00,,,0.00,Wunderground v.1.15,2013-09-02 08:20:00,
2013-09-02 02:30:00,61.6,48.9,29.80,West,275,0.0,4.0,63,0.00,,,0.00,Wunderground v.1.15,2013-09-02 08:30:00,
2013-09-02 02:35:00,61.7,48.5,29.79,West,275,0.0,4.0,62,0.00,,,0.00,Wunderground v.1.15,2013-09-02 08:35:00,
2013-09-02 02:40:00,61.6,48.9,29.80,West,275,0.0,4.0,63,0.00,,,0.00,Wunderground v.1.15,2013-09-02 08:40:00,
2013-09-02 02:45:00,61.9,49.2,29.80,West,275,0.0,4.0,63,0.00,,,0.00,Wunderground v.1.15,2013-09-02 08:45:00,
2013-09-02 02:55:00,59.8,49.2,29.80,West,275,0.0,4.0,68,0.00,,,0.00,Wunderground v.1.15,2013-09-02 08:55:00,
2013-09-02 03:00:00,60.1,49.5,29.80,West,275,0.0,4.0,68,0.00,,,0.00,Wunderground v.1.15,2013-09-02 09:00:00,
2013-09-02 03:05:00,60.2,49.2,29.80,West,275,0.0,4.0,67,0.00,,,0.00,Wunderground v.1.15,2013-09-02 09:05:00,
2013-09-02 03:10:00,60.2,48.4,29.81,West,275,0.0,4.0,65,0.00,,,0.00,Wunderground v.1.15,2013-09-02 09:10:00,
2013-09-02 03:15:00,60.0,48.6,29.81,West,275,0.0,4.0,66,0.00,,,0.00,Wunderground v.1.15,2013-09-02 09:15:00,
2013-09-02 03:20:00,59.3,49.1,29.80,West,275,0.0,4.0,69,0.00,,,0.00,Wunderground v.1.15,2013-09-02 09:20:00,
2013-09-02 03:25:00,59.3,48.3,29.80,West,275,0.0,4.0,67,0.00,,,0.00,Wunderground v.1.15,2013-09-02 09:25:00,
2013-09-02 03:30:00,60.1,47.9,29.81,West,275,0.0,4.0,64,0.00,,,0.00,Wunderground v.1.15,2013-09-02 09:30:00,
2013-09-02 03:35:00,61.0,47.9,29.81,West,275,0.0,4.0,62,0.00,,,0.00,Wunderground v.1.15,2013-09-02 09:35:00,
2013-09-02 03:40:00,61.3,49.4,29.81,West,275,0.0,4.0,65,0.00,,,0.00,Wunderground v.1.15,2013-09-02 09:40:00,
2013-09-02 03:45:00,61.0,48.7,29.81,West,275,0.0,4.0,64,0.00,,,0.00,Wunderground v.1.15,2013-09-02 09:45:00,
2013-09-02 03:55:00,60.4,49.0,29.81,West,275,0.0,4.0,66,0.00,,,0.00,Wunderground v.1.15,2013-09-02 09:55:00,
2013-09-02 04:00:00,59.5,48.5,29.81,West,275,0.0,4.0,67,0.00,,,0.00,Wunderground v.1.15,2013-09-02 10:00:00,
2013-09-02 04:10:00,59.0,48.8,29.81,West,275,0.0,4.0,69,0.00,,,0.00,Wunderground v.1.15,2013-09-02 10:10:00,
2013-09-02 04:15:00,58.9,49.1,29.80,West,275,0.0,4.0,70,0.00,,,0.00,Wunderground v.1.15,2013-09-02 10:15:00,
2013-09-02 04:20:00,59.0,49.2,29.80,West,275,0.0,4.0,70,0.00,,,0.00,Wunderground v.1.15,2013-09-02 10:20:00,
2013-09-02 04:30:00,60.2,49.2,29.80,West,275,0.0,4.0,67,0.00,,,0.00,Wunderground v.1.15,2013-09-02 10:30:00,
2013-09-02 04:35:00,61.1,49.2,29.81,West,275,0.0,4.0,65,0.00,,,0.00,Wunderground v.1.15,2013-09-02 10:35:00,
2013-09-02 04:40:00,60.7,49.3,29.80,West,275,0.0,4.0,66,0.00,,,0.00,Wunderground v.1.15,2013-09-02 10:40:00,
2013-09-02 04:45:00,60.5,49.1,29.81,West,275,0.0,4.0,66,0.00,,,0.00,Wunderground v.1.15,2013-09-02 10:45:00,
2013-09-02 04:50:00,60.0,49.4,29.80,West,275,0.0,4.0,68,0.00,,,0.00,Wunderground v.1.15,2013-09-02 10:50:00,
2013-09-02 04:55:00,59.4,49.6,29.80,West,275,0.0,4.0,70,0.00,,,0.00,Wunderground v.1.15,2013-09-02 10:55:00,
2013-09-02 05:00:00,59.3,49.1,29.80,West,275,0.0,4.0,69,0.00,,,0.00,Wunderground v.1.15,2013-09-02 11:00:00,
2013-09-02 05:10:00,58.1,48.7,29.80,West,275,0.0,4.0,71,0.00,,,0.00,Wunderground v.1.15,2013-09-02 11:10:00,
2013-09-02 05:15:00,57.4,48.1,29.80,West,275,0.0,4.0,71,0.00,,,0.00,Wunderground v.1.15,2013-09-02 11:15:00,
2013-09-02 05:20:00,58.1,48.0,29.80,West,275,0.0,4.0,69,0.00,,,0.00,Wunderground v.1.15,2013-09-02 11:20:00,
2013-09-02 05:25:00,58.0,48.6,29.80,West,275,0.0,4.0,71,0.00,,,0.00,Wunderground v.1.15,2013-09-02 11:25:00,
2013-09-02 05:30:00,57.2,48.3,29.79,West,275,0.0,4.0,72,0.00,,,0.00,Wunderground v.1.15,2013-09-02 11:30:00,
2013-09-02 05:35:00,57.1,47.8,29.79,West,275,0.0,4.0,71,0.00,,,0.00,Wunderground v.1.15,2013-09-02 11:35:00,
2013-09-02 05:40:00,57.1,47.8,29.79,West,275,0.0,4.0,71,0.00,,,0.00,Wunderground v.1.15,2013-09-02 11:40:00,
2013-09-02 05:45:00,57.3,48.7,29.79,West,275,0.0,4.0,73,0.00,,,0.00,Wunderground v.1.15,2013-09-02 11:45:00,
2013-09-02 05:50:00,57.5,48.5,29.79,West,275,0.0,4.0,72,0.00,,,0.00,Wunderground v.1.15,2013-09-02 11:50:00,
2013-09-02 05:55:00,57.3,48.3,29.79,West,275,0.0,4.0,72,0.00,,,0.00,Wunderground v.1.15,2013-09-02 11:55:00,
2013-09-02 06:00:00,57.3,48.0,29.78,West,275,0.0,4.0,71,0.00,,,0.00,Wunderground v.1.15,2013-09-02 12:00:00,
2013-09-02 06:10:00,58.3,48.6,29.78,West,275,0.0,4.0,70,0.00,,,0.00,Wunderground v.1.15,2013-09-02 12:10:00,
2013-09-02 06:15:00,58.6,48.5,29.78,West,275,0.0,4.0,69,0.00,,,0.00,Wunderground v.1.15,2013-09-02 12:15:00,
2013-09-02 06:20:00,58.6,48.8,29.78,West,275,0.0,4.0,70,0.00,,,0.00,Wunderground v.1.15,2013-09-02 12:20:00,
2013-09-02 06:25:00,57.7,48.7,29.78,West,275,0.0,4.0,72,0.00,,,0.00,Wunderground v.1.15,2013-09-02 12:25:00,
2013-09-02 06:35:00,57.1,48.2,29.78,West,275,0.0,4.0,72,0.00,,,0.00,Wunderground v.1.15,2013-09-02 12:35:00,
2013-09-02 06:40:00,58.1,48.4,29.78,West,275,0.0,4.0,70,0.00,,,0.00,Wunderground v.1.15,2013-09-02 12:40:00,
2013-09-02 06:45:00,58.5,48.4,29.78,West,275,0.0,4.0,69,0.00,,,0.00,Wunderground v.1.15,2013-09-02 12:45:00,
2013-09-02 06:50:00,58.4,47.9,29.78,West,275,0.0,4.0,68,0.00,,,0.00,Wunderground v.1.15,2013-09-02 12:50:00,
2013-09-02 06:55:00,58.6,48.5,29.78,West,275,0.0,4.0,69,0.00,,,0.00,Wunderground v.1.15,2013-09-02 12:55:00,
2013-09-02 07:00:00,58.9,48.4,29.78,West,275,0.0,4.0,68,0.00,,,0.00,Wunderground v.1.15,2013-09-02 13:00:00,
2013-09-02 07:05:00,59.3,48.3,29.79,West,275,0.0,4.0,67,0.00,,,0.00,Wunderground v.1.15,2013-09-02 13:05:00,
2013-09-02 07:15:00,60.0,48.6,29.79,West,275,0.0,4.0,66,0.00,,,0.00,Wunderground v.1.15,2013-09-02 13:15:00,
2013-09-02 07:20:00,60.0,48.2,29.79,West,275,0.0,4.0,65,0.00,,,0.00,Wunderground v.1.15,2013-09-02 13:20:00,
2013-09-02 07:25:00,59.1,48.1,29.78,West,275,0.0,4.0,67,0.00,,,0.00,Wunderground v.1.15,2013-09-02 13:25:00,
2013-09-02 07:30:00,58.1,48.7,29.78,West,275,0.0,4.0,71,0.00,,,0.00,Wunderground v.1.15,2013-09-02 13:30:00,
2013-09-02 07:35:00,58.2,47.7,29.78,West,275,0.0,4.0,68,0.00,,,0.00,Wunderground v.1.15,2013-09-02 13:35:00,
2013-09-02 07:45:00,58.6,48.5,29.78,West,275,0.0,4.0,69,0.00,,,0.00,Wunderground v.1.15,2013-09-02 13:45:00,
2013-09-02 07:50:00,57.7,48.0,29.79,West,275,0.0,4.0,70,0.00,,,0.00,Wunderground v.1.15,2013-09-02 13:50:00,
2013-09-02 07:55:00,57.6,48.6,29.79,West,275,0.0,4.0,72,0.00,,,0.00,Wunderground v.1.15,2013-09-02 13:55:00,
2013-09-02 08:00:00,57.3,49.1,29.79,West,275,0.0,4.0,74,0.00,,,0.00,Wunderground v.1.15,2013-09-02 14:00:00,
2013-09-02 08:05:00,56.7,49.2,29.79,West,275,0.0,4.0,76,0.00,,,0.00,Wunderground v.1.15,2013-09-02 14:05:00,
2013-09-02 08:10:00,56.9,49.1,29.79,West,275,0.0,4.0,75,0.00,,,0.00,Wunderground v.1.15,2013-09-02 14:10:00,
2013-09-02 08:20:00,58.1,49.9,29.79,West,275,0.0,4.0,74,0.00,,,0.00,Wunderground v.1.15,2013-09-02 14:20:00,
2013-09-02 08:25:00,58.1,50.2,29.79,West,275,0.0,4.0,75,0.00,,,0.00,Wunderground v.1.15,2013-09-02 14:25:00,
2013-09-02 08:30:00,57.8,50.6,29.79,West,275,0.0,4.0,77,0.00,,,0.00,Wunderground v.1.15,2013-09-02 14:30:00,
2013-09-02 08:35:00,58.4,50.9,29.79,West,275,0.0,4.0,76,0.00,,,0.00,Wunderground v.1.15,2013-09-02 14:35:00,
2013-09-02 08:40:00,59.3,50.6,29.79,West,275,0.0,4.0,73,0.00,,,0.00,Wunderground v.1.15,2013-09-02 14:40:00,
2013-09-02 08:45:00,60.6,51.9,29.80,West,275,0.0,4.0,73,0.00,,,0.00,Wunderground v.1.15,2013-09-02 14:45:00,
2013-09-02 08:50:00,61.4,52.7,29.80,West,275,0.0,4.0,73,0.00,,,0.00,Wunderground v.1.15,2013-09-02 14:50:00,
2013-09-02 08:55:00,61.1,52.4,29.80,West,275,0.0,4.0,73,0.00,,,0.00,Wunderground v.1.15,2013-09-02 14:55:00,
2013-09-02 09:05:00,60.6,53.3,29.80,West,275,0.0,4.0,77,0.00,,,0.00,Wunderground v.1.15,2013-09-02 15:05:00,
2013-09-02 09:10:00,61.0,53.4,29.80,West,275,0.0,4.0,76,0.00,,,0.00,Wunderground v.1.15,2013-09-02 15:10:00,
2013-09-02 09:15:00,61.3,53.7,29.80,West,275,0.0,4.0,76,0.00,,,0.00,Wunderground v.1.15,2013-09-02 15:15:00,
2013-09-02 09:20:00,61.8,52.3,29.80,West,275,0.0,4.0,71,0.00,,,0.00,Wunderground v.1.15,2013-09-02 15:20:00,
2013-09-02 09:30:00,62.9,53.7,29.80,West,275,0.0,4.0,72,0.00,,,0.00,Wunderground v.1.15,2013-09-02 15:30:00,
2013-09-02 09:35:00,63.0,53.4,29.80,West,275,0.0,4.0,71,0.00,,,0.00,Wunderground v.1.15,2013-09-02 15:35:00,
2013-09-02 09:40:00,63.2,53.3,29.80,West,275,0.0,4.0,70,0.00,,,0.00,Wunderground v.1.15,2013-09-02 15:40:00,
2013-09-02 09:45:00,63.5,53.9,29.81,West,275,0.0,4.0,71,0.00,,,0.00,Wunderground v.1.15,2013-09-02 15:45:00,
2013-09-02 09:55:00,64.9,52.8,29.81,West,275,0.0,4.0,65,0.00,,,0.00,Wunderground v.1.15,2013-09-02 15:55:00,
2013-09-02 10:00:00,65.7,54.0,29.81,West,275,0.0,4.0,66,0.00,,,0.00,Wunderground v.1.15,2013-09-02 16:00:00,
2013-09-02 10:05:00,66.3,53.8,29.81,West,275,0.0,4.0,64,0.00,,,0.00,Wunderground v.1.15,2013-09-02 16:05:00,
2013-09-02 10:10:00,66.9,53.9,29.80,West,275,0.0,4.0,63,0.00,,,0.00,Wunderground v.1.15,2013-09-02 16:10:00,
2013-09-02 10:15:00,67.4,53.9,29.80,West,275,0.0,4.0,62,0.00,,,0.00,Wunderground v.1.15,2013-09-02 16:15:00,
2013-09-02 10:20:00,67.6,52.3,29.80,West,275,0.0,4.0,58,0.00,,,0.00,Wunderground v.1.15,2013-09-02 16:20:00,
2013-09-02 10:25:00,67.7,53.3,29.81,West,275,0.0,4.0,60,0.00,,,0.00,Wunderground v.1.15,2013-09-02 16:25:00,
2013-09-02 10:30:00,68.0,54.0,29.81,West,275,0.0,4.0,61,0.00,,,0.00,Wunderground v.1.15,2013-09-02 16:30:00,
2013-09-02 10:35:00,68.1,53.7,29.81,West,275,0.0,4.0,60,0.00,,,0.00,Wunderground v.1.15,2013-09-02 16:35:00,
2013-09-02 10:40:00,68.3,53.9,29.81,West,275,0.0,4.0,60,0.00,,,0.00,Wunderground v.1.15,2013-09-02 16:40:00,
2013-09-02 10:45:00,68.8,54.3,29.80,West,275,0.0,4.0,60,0.00,,,0.00,Wunderground v.1.15,2013-09-02 16:45:00,
2013-09-02 10:50:00,69.0,53.6,29.80,West,275,0.0,4.0,58,0.00,,,0.00,Wunderground v.1.15,2013-09-02 16:50:00,
2013-09-02 11:00:00,69.3,54.8,29.81,West,280,0.0,4.0,60,0.00,,,0.00,Wunderground v.1.15,2013-09-02 17:00:00,
2013-09-02 11:05:00,69.2,53.3,29.81,North,360,1.0,4.0,57,0.00,,,0.00,Wunderground v.1.15,2013-09-02 17:05:00,
2013-09-02 11:10:00,69.3,54.4,29.81,North,5,1.0,4.0,59,0.00,,,0.00,Wunderground v.1.15,2013-09-02 17:10:00,
2013-09-02 11:15:00,69.4,54.0,29.81,North,5,1.0,4.0,58,0.00,,,0.00,Wunderground v.1.15,2013-09-02 17:15:00,
2013-09-02 11:20:00,69.7,53.8,29.80,North,5,1.0,4.0,57,0.00,,,0.00,Wunderground v.1.15,2013-09-02 17:20:00,
2013-09-02 11:30:00,70.6,54.6,29.80,North,5,0.0,4.0,57,0.00,,,0.00,Wunderground v.1.15,2013-09-02 17:30:00,
2013-09-02 11:35:00,71.4,54.9,29.80,North,5,0.0,4.0,56,0.00,,,0.00,Wunderground v.1.15,2013-09-02 17:35:00,
2013-09-02 11:40:00,72.1,53.5,29.80,North,5,0.0,4.0,52,0.00,,,0.00,Wunderground v.1.15,2013-09-02 17:40:00,
2013-09-02 11:45:00,72.1,55.0,29.80,North,355,0.0,4.0,55,0.00,,,0.00,Wunderground v.1.15,2013-09-02 17:45:00,
2013-09-02 11:55:00,72.8,55.7,29.80,NNW,338,1.0,4.0,55,0.00,,,0.00,Wunderground v.1.15,2013-09-02 17:55:00,
2013-09-02 12:00:00,73.0,55.9,29.80,NNW,338,1.0,1.0,55,0.00,,,0.00,Wunderground v.1.15,2013-09-02 18:00:00,
2013-09-02 12:05:00,73.0,54.9,29.80,NNW,342,1.0,4.0,53,0.00,,,0.00,Wunderground v.1.15,2013-09-02 18:05:00,
2013-09-02 12:10:00,73.1,56.0,29.80,NNW,336,1.0,4.0,55,0.00,,,0.00,Wunderground v.1.15,2013-09-02 18:10:00,
2013-09-02 12:15:00,73.5,56.8,29.80,NNW,338,1.0,4.0,56,0.00,,,0.00,Wunderground v.1.15,2013-09-02 18:15:00,
2013-09-02 12:20:00,74.3,58.1,29.80,NNW,343,1.0,4.0,57,0.00,,,0.00,Wunderground v.1.15,2013-09-02 18:20:00,
2013-09-02 12:25:00,74.7,58.5,29.80,NNW,343,1.0,4.0,57,0.00,,,0.00,Wunderground v.1.15,2013-09-02 18:25:00,
2013-09-02 12:30:00,75.1,56.8,29.80,NNW,342,1.0,4.0,53,0.00,,,0.00,Wunderground v.1.15,2013-09-02 18:30:00,
2013-09-02 12:40:00,76.1,56.7,29.80,NNW,348,1.0,4.0,51,0.00,,,0.00,Wunderground v.1.15,2013-09-02 18:40:00,
2013-09-02 12:45:00,76.4,56.9,29.80,NNW,348,1.0,4.0,51,0.00,,,0.00,Wunderground v.1.15,2013-09-02 18:45:00,
2013-09-02 12:50:00,76.8,57.3,29.80,NNW,327,1.0,1.0,51,0.00,,,0.00,Wunderground v.1.15,2013-09-02 18:50:00,
2013-09-02 12:55:00,77.2,57.1,29.80,NNW,336,1.0,4.0,50,0.00,,,0.00,Wunderground v.1.15,2013-09-02 18:55:00,
2013-09-02 13:00:00,76.9,56.3,29.80,North,5,1.0,1.0,49,0.00,,,0.00,Wunderground v.1.15,2013-09-02 19:00:00,
2013-09-02 13:05:00,76.1,55.5,29.80,NNW,348,1.0,4.0,49,0.00,,,0.00,Wunderground v.1.15,2013-09-02 19:05:00,
2013-09-02 13:10:00,75.8,55.8,29.81,NW,321,2.0,2.0,50,0.00,,,0.00,Wunderground v.1.15,2013-09-02 19:10:00,
2013-09-02 13:15:00,76.1,56.7,29.81,NW,321,1.0,4.0,51,0.00,,,0.00,Wunderground v.1.15,2013-09-02 19:15:00,
2013-09-02 13:20:00,76.3,56.3,29.81,NNW,348,1.0,1.0,50,0.00,,,0.00,Wunderground v.1.15,2013-09-02 19:20:00,
2013-09-02 13:25:00,76.3,55.7,29.82,NNE,28,1.0,4.0,49,0.00,,,0.00,Wunderground v.1.15,2013-09-02 19:25:00,
2013-09-02 13:30:00,76.1,56.1,29.83,NNW,342,1.0,4.0,50,0.00,,,0.00,Wunderground v.1.15,2013-09-02 19:30:00,
2013-09-02 13:35:00,76.4,56.4,29.83,NNW,331,1.0,4.0,50,0.00,,,0.00,Wunderground v.1.15,2013-09-02 19:35:00,
2013-09-02 13:40:00,76.1,56.1,29.83,NNW,342,2.0,2.0,50,0.00,,,0.00,Wunderground v.1.15,2013-09-02 19:40:00,
2013-09-02 13:45:00,75.8,56.4,29.84,NNW,342,1.0,4.0,51,0.00,,,0.00,Wunderground v.1.15,2013-09-02 19:45:00,
2013-09-02 13:50:00,75.1,55.7,29.84,NNW,338,1.0,1.0,51,0.00,,,0.00,Wunderground v.1.15,2013-09-02 19:50:00,
2013-09-02 14:00:00,73.6,53.3,29.85,NNW,348,2.0,2.0,49,0.00,,,0.00,Wunderground v.1.15,2013-09-02 20:00:00,
2013-09-02 14:05:00,72.8,53.1,29.85,North,360,2.0,4.0,50,0.00,,,0.00,Wunderground v.1.15,2013-09-02 20:05:00,
2013-09-02 14:10:00,72.2,53.6,29.85,NNW,342,2.0,2.0,52,0.00,,,0.00,Wunderground v.1.15,2013-09-02 20:10:00,
2013-09-02 14:15:00,71.9,53.3,29.84,NNE,19,2.0,4.0,52,0.00,,,0.00,Wunderground v.1.15,2013-09-02 20:15:00,
2013-09-02 14:20:00,72.0,53.4,29.84,North,360,3.0,3.0,52,0.00,,,0.00,Wunderground v.1.15,2013-09-02 20:20:00,
2013-09-02 14:30:00,72.1,51.3,29.84,NNW,342,4.0,4.0,48,0.00,,,0.00,Wunderground v.1.15,2013-09-02 20:30:00,
2013-09-02 14:35:00,72.4,51.0,29.85,NNW,340,3.0,7.0,47,0.00,,,0.00,Wunderground v.1.15,2013-09-02 20:35:00,
2013-09-02 14:40:00,72.6,51.8,29.84,NNW,341,2.0,2.0,48,0.00,,,0.00,Wunderground v.1.15,2013-09-02 20:40:00,
2013-09-02 14:45:00,73.0,53.8,29.84,North,5,2.0,4.0,51,0.00,,,0.00,Wunderground v.1.15,2013-09-02 20:45:00,
2013-09-02 14:50:00,73.4,51.9,29.84,NNW,344,1.0,4.0,47,0.00,,,0.00,Wunderground v.1.15,2013-09-02 20:50:00,
2013-09-02 14:55:00,73.5,51.4,29.84,North,5,2.0,4.0,46,0.00,,,0.00,Wunderground v.1.15,2013-09-02 20:55:00,
2013-09-02 15:05:00,74.9,52.1,29.83,NNE,13,1.0,4.0,45,0.00,,,0.00,Wunderground v.1.15,2013-09-02 21:05:00,
2013-09-02 15:10:00,75.4,52.0,29.84,NNW,338,1.0,1.0,44,0.00,,,0.00,Wunderground v.1.15,2013-09-02 21:10:00,
2013-09-02 15:15:00,75.4,53.2,29.84,NNW,338,1.0,6.0,46,0.00,,,0.00,Wunderground v.1.15,2013-09-02 21:15:00,
2013-09-02 15:20:00,74.9,51.5,29.83,NW,326,2.0,2.0,44,0.00,,,0.00,Wunderground v.1.15,2013-09-02 21:20:00,
2013-09-02 15:25:00,74.9,52.7,29.83,North,350,3.0,3.0,46,0.00,,,0.00,Wunderground v.1.15,2013-09-02 21:25:00,
2013-09-02 15:30:00,75.6,53.4,29.83,NNW,343,1.0,4.0,46,0.00,,,0.00,Wunderground v.1.15,2013-09-02 21:30:00,
2013-09-02 15:40:00,77.0,52.8,29.83,North,11,1.0,1.0,43,0.00,,,0.00,Wunderground v.1.15,2013-09-02 21:40:00,
2013-09-02 15:45:00,77.4,52.5,29.83,NNW,337,1.0,4.0,42,0.00,,,0.00,Wunderground v.1.15,2013-09-02 21:45:00,
2013-09-02 15:50:00,77.6,52.7,29.83,NNW,342,1.0,4.0,42,0.00,,,0.00,Wunderground v.1.15,2013-09-02 21:50:00,
2013-09-02 15:55:00,78.1,51.1,29.83,NNE,14,2.0,4.0,39,0.00,,,0.00,Wunderground v.1.15,2013-09-02 21:55:00,
2013-09-02 16:00:00,78.6,53.6,29.83,NNW,334,2.0,2.0,42,0.00,,,0.00,Wunderground v.1.15,2013-09-02 22:00:00,
2013-09-02 16:05:00,80.2,53.0,29.83,North,350,1.0,4.0,39,0.00,,,0.00,Wunderground v.1.15,2013-09-02 22:05:00,
2013-09-02 16:15:00,78.9,53.2,29.83,North,355,2.0,4.0,41,0.00,,,0.00,Wunderground v.1.15,2013-09-02 22:15:00,
2013-09-02 16:20:00,79.1,51.3,29.83,NNW,343,1.0,1.0,38,0.00,,,0.00,Wunderground v.1.15,2013-09-02 22:20:00,
2013-09-02 16:25:00,78.3,51.3,29.83,North,360,1.0,4.0,39,0.00,,,0.00,Wunderground v.1.15,2013-09-02 22:25:00,
2013-09-02 16:30:00,77.5,51.3,29.83,NW,323,1.0,1.0,40,0.00,,,0.00,Wunderground v.1.15,2013-09-02 22:30:00,
2013-09-02 16:35:00,77.0,50.8,29.83,NW,323,1.0,4.0,40,0.00,,,0.00,Wunderground v.1.15,2013-09-02 22:35:00,
2013-09-02 16:44:00,76.7,52.5,29.82,NW,323,0.0,4.0,43,0.00,,,0.00,Wunderground v.1.15,2013-09-02 22:44:00,
2013-09-02 16:50:00,76.7,51.9,29.82,NNW,342,1.0,4.0,42,0.00,,,0.00,Wunderground v.1.15,2013-09-02 22:50:00,
2013-09-02 16:55:00,76.9,50.7,29.82,NNW,329,2.0,4.0,40,0.00,,,0.00,Wunderground v.1.15,2013-09-02 22:55:00,
2013-09-02 17:00:00,77.5,50.6,29.82,NNW,335,1.0,1.0,39,0.00,,,0.00,Wunderground v.1.15,2013-09-02 23:00:00,
2013-09-02 17:05:00,77.4,49.8,29.82,NNW,343,1.0,3.0,38,0.00,,,0.00,Wunderground v.1.15,2013-09-02 23:05:00,
2013-09-02 17:15:00,77.3,49.7,29.82,NNW,342,3.0,4.0,38,0.00,,,0.00,Wunderground v.1.15,2013-09-02 23:15:00,
2013-09-02 17:20:00,77.7,50.8,29.82,North,350,1.0,1.0,39,0.00,,,0.00,Wunderground v.1.15,2013-09-02 23:20:00,
2013-09-02 17:25:00,77.9,52.3,29.82,North,350,0.0,4.0,41,0.00,,,0.00,Wunderground v.1.15,2013-09-02 23:25:00,
2013-09-02 17:30:00,78.1,52.5,29.82,North,350,0.0,4.0,41,0.00,,,0.00,Wunderground v.1.15,2013-09-02 23:30:00,
2013-09-02 17:35:00,77.7,53.4,29.82,NNW,339,1.0,4.0,43,0.00,,,0.00,Wunderground v.1.15,2013-09-02 23:35:00,
2013-09-02 17:40:00,77.5,51.9,29.82,NNW,339,1.0,1.0,41,0.00,,,0.00,Wunderground v.1.15,2013-09-02 23:40:00,
2013-09-02 17:45:00,77.5,51.3,29.82,North,360,0.0,4.0,40,0.00,,,0.00,Wunderground v.1.15,2013-09-02 23:45:00,
2013-09-02 17:55:00,77.3,51.8,29.82,North,360,0.0,4.0,41,0.00,,,0.00,Wunderground v.1.15,2013-09-02 23:55:00,
2013-09-02 18:00:00,76.9,51.4,29.82,North,360,0.0,4.0,41,0.00,,,0.00,Wunderground v.1.15,2013-09-03 00:00:00,
2013-09-02 18:05:00,76.9,52.1,29.82,North,360,0.0,4.0,42,0.00,,,0.00,Wunderground v.1.15,2013-09-03 00:05:00,
2013-09-02 18:10:00,76.9,52.1,29.82,North,360,0.0,4.0,42,0.00,,,0.00,Wunderground v.1.15,2013-09-03 00:10:00,
2013-09-02 18:20:00,76.6,53.7,29.82,North,360,0.0,4.0,45,0.00,,,0.00,Wunderground v.1.15,2013-09-03 00:20:00,
2013-09-02 18:25:00,76.0,51.9,29.82,North,360,0.0,4.0,43,0.00,,,0.00,Wunderground v.1.15,2013-09-03 00:25:00,
2013-09-02 18:30:00,75.7,51.6,29.82,North,360,0.0,4.0,43,0.00,,,0.00,Wunderground v.1.15,2013-09-03 00:30:00,
2013-09-02 18:35:00,75.8,52.3,29.83,North,360,0.0,4.0,44,0.00,,,0.00,Wunderground v.1.15,2013-09-03 00:35:00,
2013-09-02 18:40:00,75.7,53.4,29.83,North,360,0.0,4.0,46,0.00,,,0.00,Wunderground v.1.15,2013-09-03 00:40:00,
2013-09-02 18:50:00,75.7,55.2,29.83,North,360,0.0,4.0,49,0.00,,,0.00,Wunderground v.1.15,2013-09-03 00:50:00,
2013-09-02 18:55:00,75.8,54.1,29.83,North,360,0.0,4.0,47,0.00,,,0.00,Wunderground v.1.15,2013-09-03 00:55:00,
2013-09-02 19:00:00,75.7,53.4,29.83,North,360,0.0,4.0,46,0.00,,,0.00,Wunderground v.1.15,2013-09-03 01:00:00,
2013-09-02 19:05:00,75.4,54.3,29.83,North,360,0.0,4.0,48,0.00,,,0.00,Wunderground v.1.15,2013-09-03 01:05:00,
2013-09-02 19:10:00,75.0,54.5,29.82,North,360,0.0,4.0,49,0.00,,,0.00,Wunderground v.1.15,2013-09-03 01:10:00,
2013-09-02 19:15:00,74.4,54.0,29.82,North,360,0.0,4.0,49,0.00,,,0.00,Wunderground v.1.15,2013-09-03 01:15:00,
2013-09-02 19:20:00,74.1,53.7,29.83,North,360,0.0,4.0,49,0.00,,,0.00,Wunderground v.1.15,2013-09-03 01:20:00,
2013-09-02 19:30:00,73.8,53.4,29.83,North,360,0.0,4.0,49,0.00,,,0.00,Wunderground v.1.15,2013-09-03 01:30:00,
2013-09-02 19:35:00,73.3,53.5,29.83,North,360,0.0,4.0,50,0.00,,,0.00,Wunderground v.1.15,2013-09-03 01:35:00,
2013-09-02 19:45:00,72.8,54.1,29.84,North,360,0.0,4.0,52,0.00,,,0.00,Wunderground v.1.15,2013-09-03 01:45:00,
2013-09-02 19:50:00,72.3,52.6,29.84,NNW,346,0.0,7.0,50,0.00,,,0.00,Wunderground v.1.15,2013-09-03 01:50:00,
2013-09-02 20:05:00,72.3,52.6,29.84,NNW,340,3.0,5.0,50,0.00,,,0.00,Wunderground v.1.15,2013-09-03 02:05:00,
2013-09-02 20:10:00,72.1,52.4,29.84,NNW,340,4.0,4.0,50,0.00,,,0.00,Wunderground v.1.15,2013-09-03 02:10:00,
2013-09-02 20:15:00,71.8,52.2,29.84,NW,326,3.0,4.0,50,0.00,,,0.00,Wunderground v.1.15,2013-09-03 02:15:00,
2013-09-02 20:20:00,71.7,52.1,29.84,NW,323,3.0,3.0,50,0.00,,,0.00,Wunderground v.1.15,2013-09-03 02:20:00,
2013-09-02 20:25:00,71.3,52.2,29.85,NNW,329,2.0,4.0,51,0.00,,,0.00,Wunderground v.1.15,2013-09-03 02:25:00,
2013-09-02 20:30:00,70.8,53.3,29.85,NNW,338,1.0,1.0,54,0.00,,,0.00,Wunderground v.1.15,2013-09-03 02:30:00,
2013-09-02 20:40:00,70.6,52.1,29.86,NW,323,1.0,1.0,52,0.00,,,0.00,Wunderground v.1.15,2013-09-03 02:40:00,
2013-09-02 20:45:00,70.3,53.9,29.86,NW,323,0.0,4.0,56,0.00,,,0.00,Wunderground v.1.15,2013-09-03 02:45:00,
2013-09-02 20:50:00,69.9,52.0,29.87,NW,323,0.0,4.0,53,0.00,,,0.00,Wunderground v.1.15,2013-09-03 02:50:00,
2013-09-02 20:55:00,69.9,52.0,29.87,NW,323,0.0,4.0,53,0.00,,,0.00,Wunderground v.1.15,2013-09-03 02:55:00,
2013-09-02 21:00:00,69.9,51.5,29.88,NW,323,0.0,4.0,52,0.00,,,0.00,Wunderground v.1.15,2013-09-03 03:00:00,
2013-09-02 21:05:00,69.7,52.3,29.88,NW,323,0.0,4.0,54,0.00,,,0.00,Wunderground v.1.15,2013-09-03 03:05:00,
2013-09-02 21:10:00,69.6,51.7,29.89,NW,323,0.0,4.0,53,0.00,,,0.00,Wunderground v.1.15,2013-09-03 03:10:00,
2013-09-02 21:15:00,69.3,52.9,29.89,NW,323,0.0,4.0,56,0.00,,,0.00,Wunderground v.1.15,2013-09-03 03:15:00,
2013-09-02 21:25:00,66.0,56.7,29.89,NW,323,0.0,4.0,72,0.00,,,0.01,Wunderground v.1.15,2013-09-03 03:25:00,
2013-09-02 21:30:00,64.0,56.6,29.89,NW,323,0.0,4.0,77,0.00,,,0.01,Wunderground v.1.15,2013-09-03 03:30:00,
2013-09-02 21:35:00,62.5,56.9,29.88,NW,323,1.0,4.0,82,0.07,,,0.02,Wunderground v.1.15,2013-09-03 03:35:00,
2013-09-02 21:40:00,61.7,57.1,29.88,NW,323,1.0,4.0,85,0.06,,,0.02,Wunderground v.1.15,2013-09-03 03:40:00,
2013-09-02 21:45:00,61.3,57.1,29.88,NW,323,1.0,4.0,86,0.04,,,0.02,Wunderground v.1.15,2013-09-03 03:45:00,
2013-09-02 21:55:00,61.3,57.4,29.89,NW,323,0.0,4.0,87,0.00,,,0.02,Wunderground v.1.15,2013-09-03 03:55:00,
2013-09-02 22:00:00,61.4,58.1,29.89,NW,319,0.0,4.0,89,0.00,,,0.02,Wunderground v.1.15,2013-09-03 04:00:00,
2013-09-02 22:05:00,61.4,58.4,29.89,NW,319,1.0,4.0,90,0.00,,,0.02,Wunderground v.1.15,2013-09-03 04:05:00,
2013-09-02 22:10:00,61.6,58.6,29.88,NW,319,1.0,1.0,90,0.00,,,0.02,Wunderground v.1.15,2013-09-03 04:10:00,
2013-09-02 22:15:00,61.8,58.5,29.88,NW,318,1.0,4.0,89,0.00,,,0.02,Wunderground v.1.15,2013-09-03 04:15:00,
2013-09-02 22:20:00,62.2,58.6,29.88,NW,318,0.0,4.0,88,0.00,,,0.02,Wunderground v.1.15,2013-09-03 04:20:00,
2013-09-02 22:25:00,62.0,58.4,29.88,NW,317,1.0,4.0,88,0.00,,,0.02,Wunderground v.1.15,2013-09-03 04:25:00,
2013-09-02 22:35:00,62.2,58.3,29.88,NW,317,0.0,4.0,87,0.00,,,0.02,Wunderground v.1.15,2013-09-03 04:35:00,
2013-09-02 22:40:00,62.1,58.5,29.88,NW,317,0.0,4.0,88,0.00,,,0.02,Wunderground v.1.15,2013-09-03 04:40:00,
2013-09-02 22:45:00,61.8,58.2,29.88,NW,313,1.0,4.0,88,0.00,,,0.02,Wunderground v.1.15,2013-09-03 04:45:00,
2013-09-02 22:50:00,61.9,58.3,29.88,NW,313,0.0,4.0,88,0.00,,,0.02,Wunderground v.1.15,2013-09-03 04:50:00,
2013-09-02 23:00:00,62.0,58.1,29.87,NW,313,0.0,4.0,87,0.00,,,0.02,Wunderground v.1.15,2013-09-03 05:00:00,
2013-09-02 23:05:00,62.0,58.1,29.88,NW,313,0.0,4.0,87,0.00,,,0.02,Wunderground v.1.15,2013-09-03 05:05:00,
2013-09-02 23:10:00,61.8,57.9,29.88,NW,313,0.0,4.0,87,0.00,,,0.02,Wunderground v.1.15,2013-09-03 05:10:00,
2013-09-02 23:15:00,61.8,58.2,29.88,NW,313,0.0,4.0,88,0.00,,,0.02,Wunderground v.1.15,2013-09-03 05:15:00,
2013-09-02 23:20:00,61.5,58.2,29.87,NW,313,0.0,4.0,89,0.00,,,0.02,Wunderground v.1.15,2013-09-03 05:20:00,
2013-09-02 23:25:00,61.4,58.4,29.88,NW,313,0.0,4.0,90,0.00,,,0.02,Wunderground v.1.15,2013-09-03 05:25:00,
2013-09-02 23:30:00,61.4,58.1,29.87,NW,313,0.0,4.0,89,0.00,,,0.02,Wunderground v.1.15,2013-09-03 05:30:00,
2013-09-02 23:40:00,61.5,57.9,29.88,NW,313,0.0,4.0,88,0.00,,,0.02,Wunderground v.1.15,2013-09-03 05:40:00,
2013-09-02 23:45:00,61.3,57.7,29.88,NW,313,1.0,4.0,88,0.00,,,0.02,Wunderground v.1.15,2013-09-03 05:45:00,
2013-09-02 23:50:00,61.3,57.7,29.87,NW,313,1.0,4.0,88,0.00,,,0.02,Wunderground v.1.15,2013-09-03 05:50:00,
2013-09-02 23:55:00,61.1,57.5,29.88,NW,313,0.0,4.0,88,0.00,,,0.02,Wunderground v.1.15,2013-09-03 05:55:00,